Year,Month,Day,Hour,Minute,Value (Times are PST for temperature in C)
2018,07,05,00,00,17.80
2018,07,05,00,01,17.70
2018,07,05,00,02,17.70
2018,07,05,00,03,17.70
2018,07,05,00,04,17.70
2018,07,05,00,05,17.70
2018,07,05,00,06,17.70
2018,07,05,00,07,17.70
2018,07,05,00,08,17.70
2018,07,05,00,09,17.70
2018,07,05,00,10,17.60
2018,07,05,00,11,17.60
2018,07,05,00,12,17.60
2018,07,05,00,13,17.60
2018,07,05,00,14,17.60
2018,07,05,00,15,17.60
2018,07,05,00,16,17.60
2018,07,05,00,17,17.60
2018,07,05,00,18,17.60
2018,07,05,00,19,17.60
2018,07,05,00,20,17.50
2018,07,05,00,21,17.50
2018,07,05,00,22,17.50
2018,07,05,00,23,17.50
2018,07,05,00,24,17.50
2018,07,05,00,25,17.40
2018,07,05,00,26,17.40
2018,07,05,00,27,17.40
2018,07,05,00,28,17.40
2018,07,05,00,29,17.40
2018,07,05,00,30,17.40
2018,07,05,00,31,17.40
2018,07,05,00,32,17.30
2018,07,05,00,33,17.30
2018,07,05,00,34,17.30
2018,07,05,00,35,17.30
2018,07,05,00,36,17.30
2018,07,05,00,37,17.30
2018,07,05,00,38,17.30
2018,07,05,00,39,17.30
2018,07,05,00,40,17.20
2018,07,05,00,41,17.20
2018,07,05,00,42,17.20
2018,07,05,00,43,17.20
2018,07,05,00,44,17.20
2018,07,05,00,45,17.10
2018,07,05,00,46,17.10
2018,07,05,00,47,17.10
2018,07,05,00,48,17.10
2018,07,05,00,49,17.10
2018,07,05,00,50,17.10
2018,07,05,00,51,17.10
2018,07,05,00,52,17.00
2018,07,05,00,53,17.00
2018,07,05,00,54,17.00
2018,07,05,00,55,17.00
2018,07,05,00,56,17.00
2018,07,05,00,57,16.90
2018,07,05,00,58,16.90
2018,07,05,00,59,16.90
2018,07,05,01,00,16.90
2018,07,05,01,01,16.90
2018,07,05,01,02,16.90
2018,07,05,01,03,16.90
2018,07,05,01,04,16.90
2018,07,05,01,05,16.80
2018,07,05,01,06,16.80
2018,07,05,01,07,16.80
2018,07,05,01,08,16.80
2018,07,05,01,09,16.80
2018,07,05,01,10,16.80
2018,07,05,01,11,16.80
2018,07,05,01,12,16.80
2018,07,05,01,13,16.80
2018,07,05,01,14,16.80
2018,07,05,01,15,16.80
2018,07,05,01,16,16.70
2018,07,05,01,17,16.70
2018,07,05,01,18,16.70
2018,07,05,01,19,16.70
2018,07,05,01,20,16.70
2018,07,05,01,21,16.70
2018,07,05,01,22,16.70
2018,07,05,01,23,16.70
2018,07,05,01,24,16.70
2018,07,05,01,25,16.70
2018,07,05,01,26,16.60
2018,07,05,01,27,16.60
2018,07,05,01,28,16.60
2018,07,05,01,29,16.60
2018,07,05,01,30,16.60
2018,07,05,01,31,16.60
2018,07,05,01,32,16.60
2018,07,05,01,33,16.60
2018,07,05,01,34,16.60
2018,07,05,01,35,16.60
2018,07,05,01,36,16.60
2018,07,05,01,37,16.60
2018,07,05,01,38,16.60
2018,07,05,01,39,16.50
2018,07,05,01,40,16.50
2018,07,05,01,41,16.50
2018,07,05,01,42,16.50
2018,07,05,01,43,16.50
2018,07,05,01,44,16.50
2018,07,05,01,45,16.50
2018,07,05,01,46,16.50
2018,07,05,01,47,16.50
2018,07,05,01,48,16.50
2018,07,05,01,49,16.40
2018,07,05,01,50,16.40
2018,07,05,01,51,16.40
2018,07,05,01,52,16.40
2018,07,05,01,53,16.40
2018,07,05,01,54,16.40
2018,07,05,01,55,16.40
2018,07,05,01,56,16.40
2018,07,05,01,57,16.40
2018,07,05,01,58,16.40
2018,07,05,01,59,16.40
2018,07,05,02,00,16.40
2018,07,05,02,01,16.30
2018,07,05,02,02,16.40
2018,07,05,02,03,16.30
2018,07,05,02,04,16.30
2018,07,05,02,05,16.30
2018,07,05,02,06,16.30
2018,07,05,02,07,16.30
2018,07,05,02,08,16.30
2018,07,05,02,09,16.30
2018,07,05,02,10,16.30
2018,07,05,02,11,16.30
2018,07,05,02,12,16.30
2018,07,05,02,13,16.30
2018,07,05,02,14,16.30
2018,07,05,02,15,16.30
2018,07,05,02,16,16.30
2018,07,05,02,17,16.30
2018,07,05,02,18,16.30
2018,07,05,02,19,16.30
2018,07,05,02,20,16.30
2018,07,05,02,21,16.20
2018,07,05,02,22,16.20
2018,07,05,02,23,16.20
2018,07,05,02,24,16.20
2018,07,05,02,25,16.20
2018,07,05,02,26,16.20
2018,07,05,02,27,16.20
2018,07,05,02,28,16.20
2018,07,05,02,29,16.20
2018,07,05,02,30,16.20
2018,07,05,02,31,16.20
2018,07,05,02,32,16.20
2018,07,05,02,33,16.20
2018,07,05,02,34,16.20
2018,07,05,02,35,16.10
2018,07,05,02,36,16.10
2018,07,05,02,37,16.10
2018,07,05,02,38,16.10
2018,07,05,02,39,16.10
2018,07,05,02,40,16.10
2018,07,05,02,41,16.10
2018,07,05,02,42,16.10
2018,07,05,02,43,16.10
2018,07,05,02,44,16.10
2018,07,05,02,45,16.10
2018,07,05,02,46,16.10
2018,07,05,02,47,16.10
2018,07,05,02,48,16.10
2018,07,05,02,49,16.00
2018,07,05,02,50,16.00
2018,07,05,02,51,16.00
2018,07,05,02,52,16.00
2018,07,05,02,53,16.00
2018,07,05,02,54,16.00
2018,07,05,02,55,16.00
2018,07,05,02,56,16.00
2018,07,05,02,57,16.00
2018,07,05,02,58,15.90
2018,07,05,02,59,15.90
2018,07,05,03,00,15.90
2018,07,05,03,01,15.90
2018,07,05,03,02,15.90
2018,07,05,03,03,15.90
2018,07,05,03,04,15.90
2018,07,05,03,05,15.90
2018,07,05,03,06,15.90
2018,07,05,03,07,15.90
2018,07,05,03,08,15.90
2018,07,05,03,09,15.90
2018,07,05,03,10,15.90
2018,07,05,03,11,15.90
2018,07,05,03,12,15.90
2018,07,05,03,13,15.90
2018,07,05,03,14,15.90
2018,07,05,03,15,15.90
2018,07,05,03,16,15.90
2018,07,05,03,17,15.90
2018,07,05,03,18,15.90
2018,07,05,03,19,15.90
2018,07,05,03,20,15.90
2018,07,05,03,21,15.80
2018,07,05,03,22,15.80
2018,07,05,03,23,15.80
2018,07,05,03,24,15.80
2018,07,05,03,25,15.80
2018,07,05,03,26,15.80
2018,07,05,03,27,15.80
2018,07,05,03,28,15.80
2018,07,05,03,29,15.80
2018,07,05,03,30,15.80
2018,07,05,03,31,15.80
2018,07,05,03,32,15.80
2018,07,05,03,33,15.80
2018,07,05,03,34,15.80
2018,07,05,03,35,15.80
2018,07,05,03,36,15.80
2018,07,05,03,37,15.80
2018,07,05,03,38,15.80
2018,07,05,03,39,15.80
2018,07,05,03,40,15.80
2018,07,05,03,41,15.80
2018,07,05,03,42,15.80
2018,07,05,03,43,15.80
2018,07,05,03,44,15.80
2018,07,05,03,45,15.80
2018,07,05,03,46,15.80
2018,07,05,03,47,15.80
2018,07,05,03,48,15.80
2018,07,05,03,49,15.80
2018,07,05,03,50,15.70
2018,07,05,03,51,15.70
2018,07,05,03,52,15.70
2018,07,05,03,53,15.70
2018,07,05,03,54,15.70
2018,07,05,03,55,15.70
2018,07,05,03,56,15.70
2018,07,05,03,57,15.70
2018,07,05,03,58,15.70
2018,07,05,03,59,15.70
2018,07,05,04,00,15.70
2018,07,05,04,01,15.70
2018,07,05,04,02,15.70
2018,07,05,04,03,15.70
2018,07,05,04,04,15.70
2018,07,05,04,05,15.70
2018,07,05,04,06,15.70
2018,07,05,04,07,15.70
2018,07,05,04,08,15.70
2018,07,05,04,09,15.70
2018,07,05,04,10,15.70
2018,07,05,04,11,15.70
2018,07,05,04,12,15.70
2018,07,05,04,13,15.70
2018,07,05,04,14,15.70
2018,07,05,04,15,15.70
2018,07,05,04,16,15.70
2018,07,05,04,17,15.70
2018,07,05,04,18,15.70
2018,07,05,04,19,15.70
2018,07,05,04,20,15.70
2018,07,05,04,21,15.70
2018,07,05,04,22,15.70
2018,07,05,04,23,15.70
2018,07,05,04,24,15.70
2018,07,05,04,25,15.70
2018,07,05,04,26,15.70
2018,07,05,04,27,15.70
2018,07,05,04,28,15.70
2018,07,05,04,29,15.70
2018,07,05,04,30,15.70
2018,07,05,04,31,15.70
2018,07,05,04,32,15.70
2018,07,05,04,33,15.70
2018,07,05,04,34,15.70
2018,07,05,04,35,15.70
2018,07,05,04,36,15.70
2018,07,05,04,37,15.70
2018,07,05,04,38,15.70
2018,07,05,04,39,15.70
2018,07,05,04,40,15.70
2018,07,05,04,41,15.70
2018,07,05,04,42,15.70
2018,07,05,04,43,15.70
2018,07,05,04,44,15.70
2018,07,05,04,45,15.70
2018,07,05,04,46,15.70
2018,07,05,04,47,15.70
2018,07,05,04,48,15.70
2018,07,05,04,49,15.70
2018,07,05,04,50,15.70
2018,07,05,04,51,15.70
2018,07,05,04,52,15.70
2018,07,05,04,53,15.70
2018,07,05,04,54,15.70
2018,07,05,04,55,15.70
2018,07,05,04,56,15.70
2018,07,05,04,57,15.70
2018,07,05,04,58,15.70
2018,07,05,04,59,15.70
2018,07,05,05,00,15.70
2018,07,05,05,01,15.70
2018,07,05,05,02,15.70
2018,07,05,05,03,15.70
2018,07,05,05,04,15.70
2018,07,05,05,05,15.70
2018,07,05,05,06,15.70
2018,07,05,05,07,15.70
2018,07,05,05,08,15.70
2018,07,05,05,09,15.70
2018,07,05,05,10,15.70
2018,07,05,05,11,15.70
2018,07,05,05,12,15.70
2018,07,05,05,13,15.70
2018,07,05,05,14,15.70
2018,07,05,05,15,15.70
2018,07,05,05,16,15.70
2018,07,05,05,17,15.70
2018,07,05,05,18,15.70
2018,07,05,05,19,15.70
2018,07,05,05,20,15.70
2018,07,05,05,21,15.70
2018,07,05,05,22,15.60
2018,07,05,05,23,15.60
2018,07,05,05,24,15.60
2018,07,05,05,25,15.60
2018,07,05,05,26,15.60
2018,07,05,05,27,15.60
2018,07,05,05,28,15.60
2018,07,05,05,29,15.60
2018,07,05,05,30,15.60
2018,07,05,05,31,15.60
2018,07,05,05,32,15.60
2018,07,05,05,33,15.60
2018,07,05,05,34,15.70
2018,07,05,05,35,15.70
2018,07,05,05,36,15.70
2018,07,05,05,37,15.70
2018,07,05,05,38,15.70
2018,07,05,05,39,15.70
2018,07,05,05,40,15.70
2018,07,05,05,41,15.70
2018,07,05,05,42,15.70
2018,07,05,05,43,15.70
2018,07,05,05,44,15.70
2018,07,05,05,45,15.70
2018,07,05,05,46,15.70
2018,07,05,05,47,15.70
2018,07,05,05,48,15.70
2018,07,05,05,49,15.70
2018,07,05,05,50,15.70
2018,07,05,05,51,15.70
2018,07,05,05,52,15.70
2018,07,05,05,53,15.70
2018,07,05,05,54,15.70
2018,07,05,05,55,15.80
2018,07,05,05,56,15.80
2018,07,05,05,57,15.80
2018,07,05,05,58,15.80
2018,07,05,05,59,15.80
2018,07,05,06,00,15.80
2018,07,05,06,01,15.80
2018,07,05,06,02,15.80
2018,07,05,06,03,15.80
2018,07,05,06,04,15.80
2018,07,05,06,05,15.80
2018,07,05,06,06,15.80
2018,07,05,06,07,15.80
2018,07,05,06,08,15.80
2018,07,05,06,09,15.80
2018,07,05,06,10,15.80
2018,07,05,06,11,15.80
2018,07,05,06,12,15.90
2018,07,05,06,13,15.90
2018,07,05,06,14,15.90
2018,07,05,06,15,15.90
2018,07,05,06,16,15.90
2018,07,05,06,17,15.90
2018,07,05,06,18,15.90
2018,07,05,06,19,15.90
2018,07,05,06,20,15.90
2018,07,05,06,21,15.90
2018,07,05,06,22,16.00
2018,07,05,06,23,16.00
2018,07,05,06,24,16.00
2018,07,05,06,25,16.10
2018,07,05,06,26,16.10
2018,07,05,06,27,16.10
2018,07,05,06,28,16.10
2018,07,05,06,29,16.10
2018,07,05,06,30,16.10
2018,07,05,06,31,16.10
2018,07,05,06,32,16.20
2018,07,05,06,33,16.20
2018,07,05,06,34,16.20
2018,07,05,06,35,16.20
2018,07,05,06,36,16.20
2018,07,05,06,37,16.20
2018,07,05,06,38,16.20
2018,07,05,06,39,16.30
2018,07,05,06,40,16.30
2018,07,05,06,41,16.30
2018,07,05,06,42,16.30
2018,07,05,06,43,16.30
2018,07,05,06,44,16.30
2018,07,05,06,45,16.30
2018,07,05,06,46,16.30
2018,07,05,06,47,16.30
2018,07,05,06,48,16.40
2018,07,05,06,49,16.40
2018,07,05,06,50,16.40
2018,07,05,06,51,16.40
2018,07,05,06,52,16.40
2018,07,05,06,53,16.40
2018,07,05,06,54,16.40
2018,07,05,06,55,16.40
2018,07,05,06,56,16.40
2018,07,05,06,57,16.40
2018,07,05,06,58,16.40
2018,07,05,06,59,16.40
2018,07,05,07,00,16.40
2018,07,05,07,01,16.40
2018,07,05,07,02,16.40
2018,07,05,07,03,16.40
2018,07,05,07,04,16.40
2018,07,05,07,05,16.40
2018,07,05,07,06,16.40
2018,07,05,07,07,16.50
2018,07,05,07,08,16.40
2018,07,05,07,09,16.50
2018,07,05,07,10,16.50
2018,07,05,07,11,16.50
2018,07,05,07,12,16.50
2018,07,05,07,13,16.50
2018,07,05,07,14,16.50
2018,07,05,07,15,16.50
2018,07,05,07,16,16.50
2018,07,05,07,17,16.50
2018,07,05,07,18,16.50
2018,07,05,07,19,16.50
2018,07,05,07,20,16.50
2018,07,05,07,21,16.40
2018,07,05,07,22,16.40
2018,07,05,07,23,16.40
2018,07,05,07,24,16.40
2018,07,05,07,25,16.40
2018,07,05,07,26,16.40
2018,07,05,07,27,16.40
2018,07,05,07,28,16.40
2018,07,05,07,29,16.40
2018,07,05,07,30,16.40
2018,07,05,07,31,16.50
2018,07,05,07,32,16.50
2018,07,05,07,33,16.50
2018,07,05,07,34,16.50
2018,07,05,07,35,16.60
2018,07,05,07,36,16.60
2018,07,05,07,37,16.70
2018,07,05,07,38,16.70
2018,07,05,07,39,16.80
2018,07,05,07,40,16.90
2018,07,05,07,41,17.00
2018,07,05,07,42,17.00
2018,07,05,07,43,17.10
2018,07,05,07,44,17.20
2018,07,05,07,45,17.30
2018,07,05,07,46,17.30
2018,07,05,07,47,17.40
2018,07,05,07,48,17.40
2018,07,05,07,49,17.50
2018,07,05,07,50,17.50
2018,07,05,07,51,17.60
2018,07,05,07,52,17.70
2018,07,05,07,53,17.70
2018,07,05,07,54,17.70
2018,07,05,07,55,17.80
2018,07,05,07,56,17.80
2018,07,05,07,57,17.90
2018,07,05,07,58,17.90
2018,07,05,07,59,18.00
2018,07,05,08,00,18.00
2018,07,05,08,01,18.10
2018,07,05,08,02,18.10
2018,07,05,08,03,18.20
2018,07,05,08,04,18.20
2018,07,05,08,05,18.20
2018,07,05,08,06,18.30
2018,07,05,08,07,18.30
2018,07,05,08,08,18.30
2018,07,05,08,09,18.40
2018,07,05,08,10,18.40
2018,07,05,08,11,18.50
2018,07,05,08,12,18.50
2018,07,05,08,13,18.50
2018,07,05,08,14,18.60
2018,07,05,08,15,18.60
2018,07,05,08,16,18.70
2018,07,05,08,17,18.70
2018,07,05,08,18,18.70
2018,07,05,08,19,18.80
2018,07,05,08,20,18.80
2018,07,05,08,21,18.80
2018,07,05,08,22,18.90
2018,07,05,08,23,18.90
2018,07,05,08,24,19.00
2018,07,05,08,25,19.00
2018,07,05,08,26,19.10
2018,07,05,08,27,19.20
2018,07,05,08,28,19.30
2018,07,05,08,29,19.40
2018,07,05,08,30,19.60
2018,07,05,08,31,19.70
2018,07,05,08,32,19.90
2018,07,05,08,33,20.10
2018,07,05,08,34,20.20
2018,07,05,08,35,20.40
2018,07,05,08,36,20.50
2018,07,05,08,37,20.70
2018,07,05,08,38,20.80
2018,07,05,08,39,21.00
2018,07,05,08,40,21.10
2018,07,05,08,41,21.20
2018,07,05,08,42,21.40
2018,07,05,08,43,21.50
2018,07,05,08,44,21.70
2018,07,05,08,45,21.80
2018,07,05,08,46,22.00
2018,07,05,08,47,22.10
2018,07,05,08,48,22.20
2018,07,05,08,49,22.30
2018,07,05,08,50,22.40
2018,07,05,08,51,22.50
2018,07,05,08,52,22.60
2018,07,05,08,53,22.60
2018,07,05,08,54,22.70
2018,07,05,08,55,22.80
2018,07,05,08,56,22.80
2018,07,05,08,57,22.80
2018,07,05,08,58,22.90
2018,07,05,08,59,22.90
2018,07,05,09,00,23.00
2018,07,05,09,01,23.00
2018,07,05,09,02,23.10
2018,07,05,09,03,23.20
2018,07,05,09,04,23.20
2018,07,05,09,05,23.30
2018,07,05,09,06,23.30
2018,07,05,09,07,23.30
2018,07,05,09,08,23.20
2018,07,05,09,09,23.20
2018,07,05,09,10,23.20
2018,07,05,09,11,23.10
2018,07,05,09,12,23.10
2018,07,05,09,13,23.10
2018,07,05,09,14,23.10
2018,07,05,09,15,23.10
2018,07,05,09,16,23.00
2018,07,05,09,17,23.00
2018,07,05,09,18,23.00
2018,07,05,09,19,23.00
2018,07,05,09,20,23.00
2018,07,05,09,21,23.00
2018,07,05,09,22,23.00
2018,07,05,09,23,23.00
2018,07,05,09,24,23.10
2018,07,05,09,25,23.20
2018,07,05,09,26,23.30
2018,07,05,09,27,23.40
2018,07,05,09,28,23.50
2018,07,05,09,29,23.50
2018,07,05,09,30,23.60
2018,07,05,09,31,23.60
2018,07,05,09,32,23.70
2018,07,05,09,33,23.70
2018,07,05,09,34,23.70
2018,07,05,09,35,23.70
2018,07,05,09,36,23.70
2018,07,05,09,37,23.70
2018,07,05,09,38,23.70
2018,07,05,09,39,23.70
2018,07,05,09,40,23.70
2018,07,05,09,41,23.70
2018,07,05,09,42,23.70
2018,07,05,09,43,23.70
2018,07,05,09,44,23.70
2018,07,05,09,45,23.70
2018,07,05,09,46,23.70
2018,07,05,09,47,23.70
2018,07,05,09,48,23.70
2018,07,05,09,49,23.70
2018,07,05,09,50,23.70
2018,07,05,09,51,23.80
2018,07,05,09,52,23.80
2018,07,05,09,53,23.90
2018,07,05,09,54,23.90
2018,07,05,09,55,23.80
2018,07,05,09,56,23.80
2018,07,05,09,57,23.80
2018,07,05,09,58,23.80
2018,07,05,09,59,23.80
2018,07,05,10,00,23.80
2018,07,05,10,01,23.90
2018,07,05,10,02,23.90
2018,07,05,10,03,23.90
2018,07,05,10,04,23.90
2018,07,05,10,05,24.00
2018,07,05,10,06,23.90
2018,07,05,10,07,23.90
2018,07,05,10,08,23.90
2018,07,05,10,09,23.90
2018,07,05,10,10,23.90
2018,07,05,10,11,24.00
2018,07,05,10,12,24.10
2018,07,05,10,13,24.20
2018,07,05,10,14,24.30
2018,07,05,10,15,24.40
2018,07,05,10,16,24.40
2018,07,05,10,17,24.50
2018,07,05,10,18,24.60
2018,07,05,10,19,24.70
2018,07,05,10,20,24.70
2018,07,05,10,21,24.70
2018,07,05,10,22,24.80
2018,07,05,10,23,24.80
2018,07,05,10,24,24.90
2018,07,05,10,25,25.00
2018,07,05,10,26,25.00
2018,07,05,10,27,25.00
2018,07,05,10,28,25.00
2018,07,05,10,29,25.00
2018,07,05,10,30,25.00
2018,07,05,10,31,25.10
2018,07,05,10,32,25.10
2018,07,05,10,33,25.10
2018,07,05,10,34,25.10
2018,07,05,10,35,25.20
2018,07,05,10,36,25.20
2018,07,05,10,37,25.20
2018,07,05,10,38,25.10
2018,07,05,10,39,25.10
2018,07,05,10,40,25.10
2018,07,05,10,41,25.00
2018,07,05,10,42,25.00
2018,07,05,10,43,25.00
2018,07,05,10,44,25.10
2018,07,05,10,45,25.20
2018,07,05,10,46,25.20
2018,07,05,10,47,25.20
2018,07,05,10,48,25.20
2018,07,05,10,49,25.20
2018,07,05,10,50,25.20
2018,07,05,10,51,25.20
2018,07,05,10,52,25.10
2018,07,05,10,53,25.10
2018,07,05,10,54,25.10
2018,07,05,10,55,25.10
2018,07,05,10,56,25.10
2018,07,05,10,57,25.10
2018,07,05,10,58,25.10
2018,07,05,10,59,25.10
2018,07,05,11,00,25.10
2018,07,05,11,01,25.00
2018,07,05,11,02,25.00
2018,07,05,11,03,25.00
2018,07,05,11,04,24.90
2018,07,05,11,05,24.90
2018,07,05,11,06,24.90
2018,07,05,11,07,24.90
2018,07,05,11,08,24.90
2018,07,05,11,09,24.80
2018,07,05,11,10,24.80
2018,07,05,11,11,24.90
2018,07,05,11,12,25.00
2018,07,05,11,13,25.00
2018,07,05,11,14,25.10
2018,07,05,11,15,25.10
2018,07,05,11,16,25.10
2018,07,05,11,17,25.20
2018,07,05,11,18,25.20
2018,07,05,11,19,25.40
2018,07,05,11,20,25.50
2018,07,05,11,21,25.60
2018,07,05,11,22,25.70
2018,07,05,11,23,25.80
2018,07,05,11,24,25.90
2018,07,05,11,25,26.00
2018,07,05,11,26,26.00
2018,07,05,11,27,26.00
2018,07,05,11,28,26.10
2018,07,05,11,29,26.10
2018,07,05,11,30,26.20
2018,07,05,11,31,26.20
2018,07,05,11,32,26.20
2018,07,05,11,33,26.20
2018,07,05,11,34,26.20
2018,07,05,11,35,26.30
2018,07,05,11,36,26.30
2018,07,05,11,37,26.30
2018,07,05,11,38,26.30
2018,07,05,11,39,26.30
2018,07,05,11,40,26.30
2018,07,05,11,41,26.30
2018,07,05,11,42,26.30
2018,07,05,11,43,26.30
2018,07,05,11,44,26.30
2018,07,05,11,45,26.40
2018,07,05,11,46,26.50
2018,07,05,11,47,26.60
2018,07,05,11,48,26.50
2018,07,05,11,49,26.50
2018,07,05,11,50,26.60
2018,07,05,11,51,26.60
2018,07,05,11,52,26.60
2018,07,05,11,53,26.70
2018,07,05,11,54,26.70
2018,07,05,11,55,26.80
2018,07,05,11,56,26.70
2018,07,05,11,57,26.60
2018,07,05,11,58,26.60
2018,07,05,11,59,26.50
2018,07,05,12,00,26.50
2018,07,05,12,01,26.50
2018,07,05,12,02,26.50
2018,07,05,12,03,26.60
2018,07,05,12,04,26.70
2018,07,05,12,05,26.70
2018,07,05,12,06,26.80
2018,07,05,12,07,26.80
2018,07,05,12,08,26.90
2018,07,05,12,09,26.90
2018,07,05,12,10,26.90
2018,07,05,12,11,26.80
2018,07,05,12,12,26.60
2018,07,05,12,13,26.30
2018,07,05,12,14,26.00
2018,07,05,12,15,25.80
2018,07,05,12,16,25.50
2018,07,05,12,17,25.40
2018,07,05,12,18,25.40
2018,07,05,12,19,25.40
2018,07,05,12,20,25.50
2018,07,05,12,21,25.60
2018,07,05,12,22,25.70
2018,07,05,12,23,25.90
2018,07,05,12,24,26.10
2018,07,05,12,25,26.20
2018,07,05,12,26,26.30
2018,07,05,12,27,26.30
2018,07,05,12,28,26.30
2018,07,05,12,29,26.40
2018,07,05,12,30,26.40
2018,07,05,12,31,26.40
2018,07,05,12,32,26.40
2018,07,05,12,33,26.60
2018,07,05,12,34,26.70
2018,07,05,12,35,26.80
2018,07,05,12,36,26.90
2018,07,05,12,37,27.00
2018,07,05,12,38,27.10
2018,07,05,12,39,27.30
2018,07,05,12,40,27.40
2018,07,05,12,41,27.40
2018,07,05,12,42,27.40
2018,07,05,12,43,27.30
2018,07,05,12,44,27.20
2018,07,05,12,45,27.20
2018,07,05,12,46,27.20
2018,07,05,12,47,27.30
2018,07,05,12,48,27.40
2018,07,05,12,49,27.50
2018,07,05,12,50,27.70
2018,07,05,12,51,27.80
2018,07,05,12,52,27.90
2018,07,05,12,53,28.00
2018,07,05,12,54,28.10
2018,07,05,12,55,28.10
2018,07,05,12,56,28.20
2018,07,05,12,57,28.30
2018,07,05,12,58,28.40
2018,07,05,12,59,28.50
2018,07,05,13,00,28.60
2018,07,05,13,01,28.50
2018,07,05,13,02,28.50
2018,07,05,13,03,28.40
2018,07,05,13,04,28.30
2018,07,05,13,05,28.30
2018,07,05,13,06,28.20
2018,07,05,13,07,28.20
2018,07,05,13,08,28.10
2018,07,05,13,09,28.00
2018,07,05,13,10,27.90
2018,07,05,13,11,27.90
2018,07,05,13,12,28.00
2018,07,05,13,13,28.10
2018,07,05,13,14,28.20
2018,07,05,13,15,28.30
2018,07,05,13,16,28.30
2018,07,05,13,17,28.30
2018,07,05,13,18,28.20
2018,07,05,13,19,28.00
2018,07,05,13,20,28.00
2018,07,05,13,21,28.00
2018,07,05,13,22,27.90
2018,07,05,13,23,27.90
2018,07,05,13,24,27.90
2018,07,05,13,25,27.80
2018,07,05,13,26,27.80
2018,07,05,13,27,27.70
2018,07,05,13,28,27.50
2018,07,05,13,29,27.40
2018,07,05,13,30,27.30
2018,07,05,13,31,27.10
2018,07,05,13,32,27.00
2018,07,05,13,33,26.90
2018,07,05,13,34,26.80
2018,07,05,13,35,26.80
2018,07,05,13,36,26.70
2018,07,05,13,37,26.70
2018,07,05,13,38,26.70
2018,07,05,13,39,26.70
2018,07,05,13,40,26.70
2018,07,05,13,41,26.70
2018,07,05,13,42,26.70
2018,07,05,13,43,26.70
2018,07,05,13,44,26.70
2018,07,05,13,45,26.80
2018,07,05,13,46,26.80
2018,07,05,13,47,26.90
2018,07,05,13,48,27.10
2018,07,05,13,49,27.20
2018,07,05,13,50,27.20
2018,07,05,13,51,27.20
2018,07,05,13,52,27.30
2018,07,05,13,53,27.30
2018,07,05,13,54,27.40
2018,07,05,13,55,27.50
2018,07,05,13,56,27.50
2018,07,05,13,57,27.50
2018,07,05,13,58,27.60
2018,07,05,13,59,27.60
2018,07,05,14,00,27.70
2018,07,05,14,01,27.70
2018,07,05,14,02,27.60
2018,07,05,14,03,27.60
2018,07,05,14,04,27.60
2018,07,05,14,05,27.60
2018,07,05,14,06,27.60
2018,07,05,14,07,27.60
2018,07,05,14,08,27.60
2018,07,05,14,09,27.50
2018,07,05,14,10,27.50
2018,07,05,14,11,27.50
2018,07,05,14,12,27.50
2018,07,05,14,13,27.50
2018,07,05,14,14,27.50
2018,07,05,14,15,27.60
2018,07,05,14,16,27.70
2018,07,05,14,17,27.70
2018,07,05,14,18,27.70
2018,07,05,14,19,27.70
2018,07,05,14,20,27.80
2018,07,05,14,21,27.80
2018,07,05,14,22,27.90
2018,07,05,14,23,27.90
2018,07,05,14,24,27.90
2018,07,05,14,25,27.90
2018,07,05,14,26,27.90
2018,07,05,14,27,28.00
2018,07,05,14,28,28.00
2018,07,05,14,29,28.10
2018,07,05,14,30,28.10
2018,07,05,14,31,28.10
2018,07,05,14,32,28.10
2018,07,05,14,33,28.10
2018,07,05,14,34,28.20
2018,07,05,14,35,28.20
2018,07,05,14,36,28.20
2018,07,05,14,37,28.10
2018,07,05,14,38,28.00
2018,07,05,14,39,27.90
2018,07,05,14,40,27.80
2018,07,05,14,41,27.80
2018,07,05,14,42,27.80
2018,07,05,14,43,27.90
2018,07,05,14,44,27.90
2018,07,05,14,45,28.00
2018,07,05,14,46,28.10
2018,07,05,14,47,28.20
2018,07,05,14,48,28.30
2018,07,05,14,49,28.30
2018,07,05,14,50,28.40
2018,07,05,14,51,28.40
2018,07,05,14,52,28.30
2018,07,05,14,53,28.30
2018,07,05,14,54,28.20
2018,07,05,14,55,28.20
2018,07,05,14,56,28.30
2018,07,05,14,57,28.30
2018,07,05,14,58,28.20
2018,07,05,14,59,28.10
2018,07,05,15,00,28.00
2018,07,05,15,01,28.00
2018,07,05,15,02,27.90
2018,07,05,15,03,27.90
2018,07,05,15,04,27.80
2018,07,05,15,05,27.70
2018,07,05,15,06,27.60
2018,07,05,15,07,27.60
2018,07,05,15,08,27.60
2018,07,05,15,09,27.60
2018,07,05,15,10,27.50
2018,07,05,15,11,27.50
2018,07,05,15,12,27.40
2018,07,05,15,13,27.40
2018,07,05,15,14,27.50
2018,07,05,15,15,27.60
2018,07,05,15,16,27.60
2018,07,05,15,17,27.70
2018,07,05,15,18,27.70
2018,07,05,15,19,27.70
2018,07,05,15,20,27.70
2018,07,05,15,21,27.60
2018,07,05,15,22,27.40
2018,07,05,15,23,27.30
2018,07,05,15,24,27.30
2018,07,05,15,25,27.30
2018,07,05,15,26,27.30
2018,07,05,15,27,27.30
2018,07,05,15,28,27.20
2018,07,05,15,29,27.20
2018,07,05,15,30,27.10
2018,07,05,15,31,27.10
2018,07,05,15,32,27.10
2018,07,05,15,33,27.20
2018,07,05,15,34,27.20
2018,07,05,15,35,27.20
2018,07,05,15,36,27.30
2018,07,05,15,37,27.30
2018,07,05,15,38,27.30
2018,07,05,15,39,27.30
2018,07,05,15,40,27.40
2018,07,05,15,41,27.40
2018,07,05,15,42,27.50
2018,07,05,15,43,27.60
2018,07,05,15,44,27.70
2018,07,05,15,45,27.70
2018,07,05,15,46,27.70
2018,07,05,15,47,27.70
2018,07,05,15,48,27.70
2018,07,05,15,49,27.70
2018,07,05,15,50,27.70
2018,07,05,15,51,27.70
2018,07,05,15,52,27.50
2018,07,05,15,53,27.40
2018,07,05,15,54,27.30
2018,07,05,15,55,27.20
2018,07,05,15,56,27.20
2018,07,05,15,57,27.10
2018,07,05,15,58,27.00
2018,07,05,15,59,26.90
2018,07,05,16,00,26.90
2018,07,05,16,01,26.90
2018,07,05,16,02,26.90
2018,07,05,16,03,27.00
2018,07,05,16,04,27.10
2018,07,05,16,05,27.10
2018,07,05,16,06,27.20
2018,07,05,16,07,27.20
2018,07,05,16,08,27.20
2018,07,05,16,09,27.10
2018,07,05,16,10,27.10
2018,07,05,16,11,27.00
2018,07,05,16,12,27.00
2018,07,05,16,13,27.10
2018,07,05,16,14,27.10
2018,07,05,16,15,27.10
2018,07,05,16,16,27.10
2018,07,05,16,17,27.20
2018,07,05,16,18,27.20
2018,07,05,16,19,27.20
2018,07,05,16,20,27.30
2018,07,05,16,21,27.30
2018,07,05,16,22,27.30
2018,07,05,16,23,27.40
2018,07,05,16,24,27.40
2018,07,05,16,25,27.30
2018,07,05,16,26,27.30
2018,07,05,16,27,27.30
2018,07,05,16,28,27.20
2018,07,05,16,29,27.20
2018,07,05,16,30,27.30
2018,07,05,16,31,27.40
2018,07,05,16,32,27.40
2018,07,05,16,33,27.30
2018,07,05,16,34,27.30
2018,07,05,16,35,27.10
2018,07,05,16,36,27.10
2018,07,05,16,37,27.00
2018,07,05,16,38,27.00
2018,07,05,16,39,26.90
2018,07,05,16,40,26.90
2018,07,05,16,41,26.90
2018,07,05,16,42,26.80
2018,07,05,16,43,26.70
2018,07,05,16,44,26.70
2018,07,05,16,45,26.60
2018,07,05,16,46,26.50
2018,07,05,16,47,26.40
2018,07,05,16,48,26.30
2018,07,05,16,49,26.30
2018,07,05,16,50,26.20
2018,07,05,16,51,26.20
2018,07,05,16,52,26.20
2018,07,05,16,53,26.10
2018,07,05,16,54,26.20
2018,07,05,16,55,26.20
2018,07,05,16,56,26.20
2018,07,05,16,57,26.20
2018,07,05,16,58,26.30
2018,07,05,16,59,26.30
2018,07,05,17,00,26.30
2018,07,05,17,01,26.20
2018,07,05,17,02,26.20
2018,07,05,17,03,26.20
2018,07,05,17,04,26.20
2018,07,05,17,05,26.30
2018,07,05,17,06,26.30
2018,07,05,17,07,26.50
2018,07,05,17,08,26.50
2018,07,05,17,09,26.60
2018,07,05,17,10,26.70
2018,07,05,17,11,26.70
2018,07,05,17,12,26.70
2018,07,05,17,13,26.70
2018,07,05,17,14,26.70
2018,07,05,17,15,26.70
2018,07,05,17,16,26.70
2018,07,05,17,17,26.70
2018,07,05,17,18,26.70
2018,07,05,17,19,26.70